Location: Isle of Man Observatory
(54.1776°N, 4.6264°W)
Time: 14:52:46
(UTC+02:00)

ARIANE 6 FM1 Upper Stage - Pass Details

Date: 21 April 2026
Orbit: 526 x 601 km, 62.0° (Epoch: 19 May)

Event Time Altitude Azimuth Distance (km) Brightness Sun altitude
Rises 02:49:48 0° 305° (NW) 2,677 6.5 -23.7°
Reaches altitude 10° 02:52:08 10° 296° (WNW) 1,779 5.4 -23.6°
Enters shadow 02:53:25 18° 285° (WNW) 1,337 4.6 -23.6°
